DELTA 1 DEB, 18870

Orbit data source: Space-Track

DELTA 1 DEB, 18870 is space debris in LEO originally from a launch on Tue, 06 Nov 1973 UTC launched from the Air Force Western Test Range (AFWTR). Debris objects in space refer to the collection of defunct objects orbiting the Earth. Examples of debris include non-operational satellites, rocket bodies, and fragments generated from explosions, collisions, or faulty payload assembly.

Loading next visibility...
Identifier
18870, 1973-086HA
Orbit
LEO
Country
Flag of USUS
Related business
Manufacturer
Unknown
Mission
Spacecraft
Bus & Motor
Unknown
Mass
Unknown
Launch date (UTC)
1973-11-06 (52 years ago)
Launch vehicle
Unknown
Launch site
Air Force Western Test Range (AFWTR)
Object type
Payload
Rocket body
Debris
Shape & HBR
Unknown shape, 0.1 m
Radar Cross Section
Small (<0.1 m²)

Expand to show TLE details & history
Last TLE update: 21 hours ago

TLE from 21 hours ago
0 DELTA 1 DEB
1 18870U 73086HA  25308.07750012  .00000366  00000-0  45045-2 0  9993
2 18870 101.7722 253.8031 0339331 172.9292 187.6707 11.95043452556165
Epoch: 2025-11-04T01:51Z
TLE epoch observation values (Epoch: 2025-11-04T01:51:36.010Z)
Latitude
0.00003°
Longitude
-177.66665°
Altitude
1,977.596 km
Speed
6.791 km/s
True Right ascension
16h 55m 12s
True Declination
0° 00' 00"
Sunlit
Object was in daylight at epoch
Visualization orbit readout
Latitude
Unknown
Longitude
Unknown
Altitude
Unknown
Speed
Unknown
Apparent Right ascension
Unknown
Apparent Declination
Unknown
Sunlit
N/A
Visualization observer readout
Local Sidereal Time
19:04:25
Azimuth
Unknown
Elevation
Unknown
Doppler factor
Unknown
Orbital elements
Apogee altitude
1,974.887 km
Perigee altitude
1,426.604 km
Semi-major axis
8,078.882 km
Eccentricity
0.03393
Inclination
101.7722°
RAAN
253.8031°
Arg. of periapsis
172.9292°
True anomaly
187.17265°
Mean anomaly
187.6707°
Eccentric anomaly
187.41963°
Mean motion
2.98893 °/min
Orbital period
120.44 mins
BSTAR
0.0045045
Loading maneuver chart data...
Computing Atmospheric mass density...
Loading historical data...
Loading historical data...
Loading historical data...
Loading historical data...
Loading historical data...
Loading historical data...
Loading historical data...

Documentation

Showing up to 5 results
|